Maxwell AFB, AL

1:39 AM CDT on May 30, 2017 (GMT -0500)
Maxwell Air Force Base

Weather History for KMXF - January, 2013

Change the Weather History Date:

Wednesday, January 23, 2013

  Actual Average Record
Temperature  
Mean Temperature 44 °F -  
Max Temperature 56 °F 57 °F 80 °F (2002)
Min Temperature 33 °F 36 °F 21 °F (2003)
Degree Days  
Heating Degree Days 20    
Moisture  
Dew Point 35 °F    
Average Humidity 71    
Maximum Humidity 93    
Minimum Humidity 44    
Precipitation  
Precipitation 0.00 in - - ()
Sea Level Pressure  
Sea Level Pressure 30.34 in    
Wind  
Wind Speed 1 mph (SW)    
Max Wind Speed 6 mph    
Max Gust Speed -    
Visibility 10 miles    
Events      
Averages and records for this station are not official NWS values.
T = Trace of Precipitation, MM = Missing Value Source: NWS Daily Summary

Daily Weather History Graph

Daily Weather History Graph

Search for Another Location

Airport or City:

Trip Planner

Search our weather history database for the weather conditions in past years. The results will help you decide how hot, cold, wet, or windy it might be!

Date:

Astronomy

Jan. 23, 2013 Rise Set
Actual Time 6:44 AM CST 5:10 PM CST
Civil Twilight 6:18 AM CST 5:36 PM CST
Nautical Twilight 5:48 AM CST 6:06 PM CST
Astronomical Twilight 5:19 AM CST 6:35 PM CST
Moon 2:23 PM CST (1/23) 3:52 AM CST (1/23)
Length of Visible Light 11h 18m
Length of Day
10h 26m
Waxing Gibbous, 89% of the Moon is Illuminated
Jan 23
Waxing Gibbous
Jan 26
Full
Feb 3
Last Quarter
Feb 10
New
Feb 17
First Quarter

Hourly Weather History & Observations

Time (CST) Temp. Windchill Dew Point Humidity Pressure Visibility Wind Dir Wind Speed Gust Speed Precip Events Conditions
12:55 AM 33.1 °F - 29.3 °F 86% 30.35 in 10.0 mi Calm Calm - N/A   Clear
1:55 AM 33.4 °F - 31.6 °F 93% 30.36 in 10.0 mi Calm Calm - N/A   Partly Cloudy
2:55 AM 33.8 °F 29.6 °F 28.4 °F 81% 30.37 in 10.0 mi NNE 4.6 mph - N/A   Partly Cloudy
3:55 AM 35.2 °F 32.4 °F 28.2 °F 76% 30.36 in 10.0 mi ENE 3.5 mph - N/A   Mostly Cloudy
4:55 AM 35.6 °F - 31.5 °F 85% 30.38 in 10.0 mi Calm Calm - N/A   Overcast
5:55 AM 37.0 °F - 32.4 °F 83% 30.39 in 10.0 mi Calm Calm - N/A   Overcast
6:55 AM 38.1 °F - 32.0 °F 79% 30.40 in 10.0 mi Calm Calm - N/A   Overcast
7:55 AM 39.2 °F - 32.2 °F 76% 30.41 in 10.0 mi Calm Calm - N/A   Overcast
8:55 AM 41.2 °F - 32.7 °F 72% 30.43 in 10.0 mi Calm Calm - N/A   Overcast
9:55 AM 43.9 °F - 31.6 °F 62% 30.43 in 10.0 mi Calm Calm - N/A   Overcast
10:55 AM 45.3 °F - 31.3 °F 58% 30.42 in 10.0 mi Calm Calm - N/A   Overcast
11:55 AM 47.8 °F - 29.1 °F 48% 30.39 in 10.0 mi Calm Calm - N/A   Overcast
12:55 PM 52.3 °F - 30.9 °F 44% 30.33 in 10.0 mi SSW 4.6 mph - N/A   Overcast
1:55 PM 55.4 °F - 34.5 °F 45% 30.32 in 10.0 mi WSW 4.6 mph - N/A   Overcast
2:55 PM 56.8 °F - 35.8 °F 45% 30.31 in 10.0 mi WSW 3.5 mph - N/A   Overcast
3:55 PM 56.8 °F - 36.7 °F 47% 30.30 in 10.0 mi Calm Calm - N/A   Overcast
4:55 PM 55.2 °F - 38.1 °F 53% 30.28 in 10.0 mi Calm Calm - N/A   Clear
5:55 PM 50.9 °F - 39.2 °F 64% 30.28 in 10.0 mi Calm Calm - N/A   Mostly Cloudy
6:55 PM 46.4 °F - 40.5 °F 80% 30.27 in 10.0 mi Calm Calm - N/A   Mostly Cloudy
7:55 PM 44.4 °F 42.9 °F 39.9 °F 84% 30.26 in 10.0 mi SSW 3.5 mph - N/A   Clear
8:55 PM 44.2 °F - 40.8 °F 88% 30.27 in 10.0 mi Calm Calm - N/A   Scattered Clouds
9:55 PM 42.3 °F 38.6 °F 39.4 °F 90% 30.27 in 10.0 mi SSW 5.8 mph - N/A   Partly Cloudy
10:55 PM 50.9 °F - 44.2 °F 78% 30.26 in 10.0 mi WSW 3.5 mph - N/A   Mostly Cloudy
11:55 PM 49.5 °F - 44.4 °F 83% 30.27 in 10.0 mi Calm Calm - N/A   Partly Cloudy